Wind_Speed
18 17 18 16 16 15 13 13 13 13 11 9 9 9 10 11 10 10 11 11 14 15 16 16 14 12 9 9 8 7 5 3 1 1 0 3 4 3 3 3 3 1 2
18 15 19 18 16 14 14 13 13 11 9 9 8 8 8 8 8 9 9 11 13 14 16 14 14 13 11 8 7 8 8 6 6 7 6 5 2 4 3 3 1 1 1
17 18 19 19 17 17 16 16 14 11 11 10 9 10 9 8 6 8 9 11 11 12 12 11 10 8 6 6 7 8 8 6 7 7 7 9 4 3 2 4 5 4 4
18 19 19 20 20 20 20 19 17 17 15 15 15 14 12 10 10 9 7 7 8 9 8 7 6 4 3 3 5 5 5 4 9 12 6 11 8 4 3 5 6 5 5
20 20 20 21 21 21 21 19 19 18 19 19 18 17 16 13 11 9 8 8 8 6 4 2 2 1 2 0 1 1 2 5 10 11 8 2 3 4 4 5 5 4 4
20 20 21 22 21 21 21 21 19 19 19 20 19 17 14 14 13 11 10 9 7 5 5 5 4 1 2 1 2 2 4 6 4 3 3 4 4 2 1 2 7 8 6
19 19 20 21 21 20 20 18 18 17 18 18 18 17 17 14 13 13 13 11 8 6 5 3 2 3 4 2 2 2 5 5 2 6 7 3 8 5 1 4 4 6 8
18 18 18 19 19 20 19 16 17 16 16 16 16 16 15 15 13 11 10 7 6 7 9 6 5 6 5 3 5 7 6 8 12 13 4 6 5 10 5 5 5 5 8
17 17 17 17 17 17 17 15 15 14 13 14 16 17 16 16 12 11 10 10 9 8 7 9 6 4 5 7 5 3 3 8 19 14 11 4 7 7 7 5 5 7 9
14 15 15 16 15 15 16 15 14 13 12 14 17 14 13 13 10 9 8 11 8 5 2 13 10 10 8 8 13 7 6 8 11 14 9 8 9 11 10 8 8 9 10
13 13 13 14 14 14 15 14 15 13 13 13 14 13 11 10 9 17 17 12 9 5 11 15 21 18 9 14 14 11 17 14 12 16 12 11 8 7 7 6 7 8 11
12 12 12 12 12 14 16 15 15 13 12 13 14 13 9 8 9 3 14 16 14 15 15 16 11 13 10 9 9 13 10 14 16 13 11 8 8 8 9 8 9 9 10
11 11 11 12 12 14 16 15 15 12 12 17 15 11 11 8 3 17 19 22 19 16 11 9 4 6 10 15 15 13 12 11 8 7 6 10 11 14 15 11 11 12 14
9 10 10 12 12 15 16 16 15 14 16 16 11 11 17 11 17 18 24 26 21 18 13 9 15 18 21 16 14 13 11 11 10 13 16 14 13 12 7 14 14 15 16
9 8 10 13 13 14 16 16 16 16 16 15 14 14 9 14 18 23 29 25 18 23 18 6 5 12 12 12 14 16 21 24 22 18 19 22 23 28 22 19 18 19 19
7 7 8 12 13 15 15 17 17 18 19 18 14 16 16 19 22 26 26 26 27 28 23 12 12 9 12 17 18 19 21 23 23 30 32 28 27 29 25 23 18 20 24
6 5 6 10 12 15 16 16 18 19 20 18 17 17 19 23 25 26 27 28 32 40 40 32 21 16 17 20 18 19 22 24 28 36 24 34 31 24 23 26 15 22 23
7 4 5 9 11 13 15 16 17 19 19 19 17 19 20 22 24 24 28 26 27 29 30 29 21 19 18 16 15 19 20 27 28 34 29 28 37 29 26 27 21 26 34
8 6 4 8 10 12 12 14 16 19 18 19 16 16 18 21 25 26 32 31 28 23 24 21 19 17 16 17 18 20 23 25 30 25 29 25 25 24 28 34 21 23 27
9 7 4 7 8 10 11 13 15 17 18 18 17 15 14 17 21 27 27 26 19 20 17 16 17 17 17 19 20 21 23 29 31 31 29 26 27 28 29 31 35 24 31
9 8 5 6 7 7 10 12 13 15 17 18 18 15 13 14 17 20 23 21 22 20 16 15 14 17 19 19 23 27 30 31 30 30 30 28 32 37 41 45 11 44 37
10 9 7 6 7 4 6 10 11 13 15 17 17 13 13 12 13 16 19 19 18 17 16 15 15 15 15 16 16 19 22 31 34 32 33 36 42 45 43 33 37 38 39
12 10 9 7 6 5 2 7 9 10 12 14 14 14 9 11 12 13 15 15 15 16 16 18 18 18 18 18 18 17 22 27 29 35 38 43 46 46 45 41 40 31 25
14 11 12 10 8 7 3 4 7 8 8 11 13 14 10 8 10 13 14 15 15 16 17 19 20 20 21 23 25 30 34 33 33 36 41 45 48 48 48 45 32 23 19
12 12 13 11 10 10 6 3 4 5 6 8 11 12 12 7 9 10 13 17 17 18 21 23 25 26 25 25 27 32 34 35 35 37 41 48 47 48 45 33 28 25 23
11 11 15 14 11 12 9 4 3 3 4 6 7 9 11 8 6 10 13 15 18 21 22 24 24 26 27 28 32 35 36 35 35 39 44 49 48 46 39 35 32 29 24
Wind_Direction
78 76 80 81 78 78 85 88 90 94 93 98 94 89 79 73 77 80 70 70 76 72 76 83 89 95 94 81 81 80 84 87 17 299 178 203 155 163 157 154 142 136 92
79 77 75 75 71 73 75 81 84 87 89 83 82 80 82 81 75 75 71 73 73 68 68 67 70 70 69 68 59 41 24 19 358 310 273 279 231 196 173 176 154 277 351
82 77 76 78 78 76 76 75 78 78 74 74 75 71 69 66 64 64 62 60 62 65 66 70 71 73 72 48 32 18 15 14 10 347 221 202 201 198 196 207 194 199 203
80 80 81 80 77 76 73 73 74 73 72 68 69 71 70 65 58 60 63 61 54 60 59 60 60 58 51 32 18 356 358 13 27 35 103 167 159 155 192 244 237 203 211
84 85 83 79 76 76 75 75 77 78 76 70 67 69 75 73 69 63 55 52 55 63 70 65 65 11 289 176 130 56 29 49 40 39 57 82 162 159 233 246 258 242 243
86 83 80 74 70 69 72 72 70 74 70 62 67 72 77 80 81 79 74 71 76 93 91 88 96 142 223 205 143 132 94 65 58 97 60 40 296 160 240 304 259 249 244
87 83 77 72 66 65 67 69 62 64 62 55 56 60 56 61 73 78 81 83 83 71 67 80 141 211 224 219 58 12 44 63 349 339 180 176 259 265 20 348 323 268 259
86 81 76 73 71 67 67 67 58 57 55 52 49 52 55 59 65 75 83 82 70 60 54 22 350 326 300 343 9 17 18 31 351 22 320 230 291 306 318 330 321 290 265
83 80 72 69 72 73 67 60 56 50 48 47 48 47 55 61 58 70 76 75 66 67 50 25 33 352 358 16 28 46 29 54 43 34 10 260 306 313 309 316 310 298 289
86 76 69 68 69 67 64 53 51 46 45 54 55 55 62 69 68 69 66 61 61 64 68 347 77 49 36 49 59 31 316 58 43 38 41 6 348 322 311 314 308 301 296
85 77 68 69 66 61 59 50 48 43 42 54 62 62 69 44 49 50 43 38 70 56 44 30 7 79 58 32 85 68 22 36 10 30 26 10 342 324 312 322 311 304 297
91 79 69 62 60 55 57 48 46 45 51 53 57 56 53 46 38 120 45 15 60 87 72 78 64 76 81 49 49 22 35 35 14 22 18 0 338 322 314 337 331 312 296
97 84 69 61 56 58 61 52 45 43 49 54 63 58 58 29 91 63 29 58 38 45 45 68 352 89 118 46 30 21 359 37 15 318 47 324 331 329 322 332 320 306 301
93 81 71 67 60 66 64 62 49 42 47 69 56 98 54 41 32 34 33 30 30 21 45 5 51 53 37 33 39 19 358 31 16 342 340 335 328 285 324 314 299 293 287
93 88 73 64 68 65 63 64 56 47 48 67 56 64 54 42 48 47 46 35 12 22 32 39 105 61 38 42 28 17 14 355 3 354 345 346 341 323 338 315 312 308 302
104 87 75 64 69 65 58 59 54 49 47 60 71 60 57 49 48 57 47 35 30 27 39 65 86 82 34 25 26 19 11 360 348 350 350 342 338 326 311 306 305 304 294
118 93 69 74 68 68 62 57 50 47 43 43 68 75 72 65 53 52 42 37 33 38 38 41 52 43 33 32 23 13 2 346 350 348 1 347 325 333 304 292 297 292 291
140 118 77 81 78 67 70 64 54 49 45 48 56 65 73 73 68 56 43 51 51 50 49 54 51 35 24 22 10 1 353 342 351 336 333 335 330 334 329 331 314 310 304
151 145 102 95 85 72 72 71 65 56 50 50 55 68 72 68 66 64 58 64 54 52 48 47 39 30 17 2 0 358 352 350 352 351 338 340 333 329 327 329 328 310 315
165 159 124 108 94 81 79 77 70 63 59 56 72 75 78 64 59 64 65 51 43 58 51 39 29 17 11 6 4 3 359 351 348 344 343 342 342 340 329 324 313 309 308
184 166 146 131 110 84 89 85 76 66 62 56 72 90 82 69 59 64 69 58 71 53 46 42 30 18 11 9 4 360 350 345 346 345 350 350 345 340 335 330 321 311 304
178 173 164 157 135 99 87 96 87 78 66 63 61 89 97 88 76 69 65 66 61 55 47 41 35 25 23 17 14 7 353 345 345 355 356 353 346 339 327 313 313 322 316
186 178 177 169 157 132 96 100 88 75 67 63 63 63 87 84 75 69 66 64 61 53 47 40 32 26 22 18 19 7 356 355 358 1 359 354 347 333 320 327 330 327 323
189 186 177 182 169 159 160 116 97 81 61 61 58 56 59 65 59 51 44 45 42 41 40 38 32 29 22 20 9 2 0 3 11 7 359 356 346 327 328 337 335 339 334
191 193 183 188 173 165 180 160 115 84 56 47 55 52 55 56 42 39 33 28 25 27 29 28 24 21 18 15 10 8 3 8 10 6 4 360 350 336 343 351 352 343 333
207 187 183 188 187 173 177 211 157 91 49 34 42 45 49 59 51 29 29 25 22 24 24 24 22 19 17 12 9 6 7 13 10 8 7 7 358 347 351 350 350 345 345
Height
5893 5894 5892 5894 5894 5894 5894 5894 5895 5895 5895 5895 5894 5894 5894 5894 5895 5894 5894 5894 5894 5895 5896 5896 5896 5896 5897 5897 5898 5897 5896 5895 5892 5892 5892 5893 5892 5893 5894 5895 5897 5899 5899
5895 5897 5895 5895 5896 5896 5896 5896 5896 5895 5896 5896 5896 5896 5896 5896 5895 5895 5895 5896 5897 5898 5898 5897 5897 5899 5899 5898 5898 5899 5898 5897 5896 5894 5893 5894 5894 5893 5893 5894 5895 5897 5897
5898 5899 5898 5898 5899 5899 5898 5898 5898 5898 5898 5898 5898 5898 5897 5897 5896 5897 5897 5898 5898 5898 5898 5898 5899 5899 5898 5899 5899 5898 5898 5897 5895 5893 5893 5894 5896 5896 5896 5895 5896 5896 5897
5901 5901 5901 5901 5901 5901 5901 5901 5901 5900 5899 5899 5899 5899 5898 5898 5898 5898 5898 5899 5900 5900 5900 5900 5900 5899 5899 5899 5898 5897 5895 5895 5896 5894 5893 5894 5895 5895 5896 5900 5900 5897 5898
5904 5904 5904 5904 5904 5904 5904 5903 5902 5901 5900 5901 5901 5901 5899 5898 5898 5899 5899 5901 5901 5900 5898 5898 5898 5898 5897 5897 5896 5895 5896 5896 5896 5896 5897 5898 5896 5894 5896 5896 5896 5897 5897
5907 5907 5906 5907 5906 5906 5906 5906 5906 5905 5904 5904 5903 5901 5899 5900 5900 5899 5899 5900 5899 5897 5898 5898 5898 5896 5895 5895 5894 5895 5897 5897 5896 5896 5895 5896 5898 5895 5894 5893 5894 5894 5894
5909 5910 5909 5909 5910 5910 5909 5909 5908 5907 5907 5906 5905 5903 5903 5901 5901 5899 5900 5901 5900 5899 5899 5897 5895 5892 5890 5891 5893 5892 5894 5893 5891 5894 5894 5893 5896 5895 5891 5891 5891 5893 5893
5913 5913 5912 5913 5913 5913 5912 5911 5911 5911 5910 5909 5908 5905 5903 5902 5902 5901 5899 5898 5899 5899 5898 5897 5896 5895 5892 5893 5894 5894 5892 5895 5895 5897 5897 5894 5896 5895 5891 5890 5890 5890 5891
5916 5916 5916 5915 5916 5916 5915 5915 5914 5913 5912 5912 5909 5906 5904 5904 5903 5902 5901 5898 5899 5899 5896 5895 5893 5893 5894 5896 5893 5891 5891 5893 5893 5894 5893 5893 5893 5891 5890 5887 5888 5889 5890
5919 5919 5919 5919 5919 5919 5919 5918 5916 5914 5914 5913 5911 5907 5906 5904 5904 5904 5902 5900 5899 5899 5895 5872 5892 5898 5898 5895 5896 5894 5882 5891 5894 5895 5892 5893 5890 5890 5889 5886 5886 5886 5886
5921 5922 5922 5922 5922 5922 5922 5920 5917 5916 5917 5916 5912 5909 5908 5906 5905 5907 5909 5904 5900 5898 5899 5900 5898 5901 5902 5896 5892 5891 5893 5893 5894 5891 5888 5887 5888 5888 5886 5883 5881 5880 5881
5925 5925 5925 5925 5925 5925 5923 5921 5920 5919 5919 5918 5915 5913 5912 5911 5907 5884 5903 5911 5903 5902 5900 5903 5903 5899 5895 5896 5896 5896 5894 5893 5892 5892 5891 5890 5889 5887 5885 5880 5878 5878 5878
5928 5928 5928 5928 5928 5928 5927 5923 5921 5922 5922 5922 5919 5917 5916 5911 5903 5905 5915 5916 5907 5901 5902 5901 5891 5894 5894 5889 5894 5898 5897 5895 5896 5885 5882 5889 5888 5886 5881 5876 5875 5877 5878
5931 5931 5931 5931 5931 5930 5930 5928 5924 5923 5924 5924 5921 5920 5919 5917 5915 5915 5912 5914 5909 5905 5903 5901 5903 5898 5896 5902 5900 5897 5897 5897 5898 5894 5893 5892 5886 5871 5872 5876 5875 5873 5871
5934 5934 5934 5934 5934 5933 5933 5931 5928 5926 5926 5926 5922 5921 5923 5921 5920 5917 5912 5914 5910 5908 5905 5904 5902 5896 5898 5905 5900 5896 5892 5890 5891 5893 5890 5886 5884 5872 5868 5872 5871 5870 5868
5936 5936 5936 5937 5937 5936 5934 5933 5932 5930 5928 5927 5926 5925 5923 5922 5920 5917 5915 5911 5915 5907 5902 5899 5900 5905 5904 5902 5901 5898 5897 5893 5887 5889 5888 5887 5884 5879 5873 5870 5868 5865 5864
5938 5939 5939 5939 5940 5939 5938 5935 5934 5932 5929 5929 5930 5930 5928 5924 5920 5920 5919 5916 5914 5904 5898 5900 5903 5905 5904 5903 5904 5903 5899 5895 5897 5893 5888 5887 5882 5872 5873 5856 5861 5856 5855
5939 5940 5940 5941 5942 5942 5941 5939 5938 5934 5933 5931 5930 5930 5929 5929 5930 5929 5927 5922 5918 5915 5913 5911 5911 5913 5913 5911 5910 5906 5901 5896 5898 5893 5890 5886 5880 5870 5866 5862 5853 5849 5837
5938 5941 5942 5942 5943 5944 5943 5943 5942 5939 5937 5934 5933 5932 5931 5932 5933 5932 5929 5925 5924 5922 5921 5921 5921 5920 5918 5915 5911 5908 5902 5898 5894 5894 5890 5884 5877 5872 5858 5850 5849 5843 5838
5939 5940 5942 5943 5945 5945 5945 5945 5944 5943 5941 5940 5938 5937 5936 5935 5936 5935 5933 5930 5929 5929 5927 5926 5925 5923 5919 5915 5911 5906 5904 5898 5893 5888 5884 5880 5872 5865 5859 5852 5847 5841 5835
5939 5940 5942 5944 5946 5947 5947 5947 5947 5946 5944 5944 5941 5942 5940 5939 5940 5940 5938 5936 5935 5933 5932 5929 5928 5925 5922 5919 5913 5905 5899 5896 5892 5887 5880 5875 5867 5856 5847 5839 5832 5835 5828
5937 5940 5942 5944 5945 5948 5949 5949 5948 5948 5946 5946 5944 5943 5944 5943 5943 5942 5942 5940 5938 5936 5934 5933 5931 5927 5925 5921 5915 5909 5905 5896 5887 5882 5875 5867 5858 5847 5837 5829 5827 5825 5819
5936 5938 5941 5942 5945 5947 5949 5950 5950 5949 5948 5948 5947 5945 5944 5945 5944 5944 5943 5943 5942 5939 5937 5935 5932 5927 5924 5920 5915 5912 5906 5897 5887 5877 5870 5863 5854 5842 5829 5824 5818 5813 5809
5935 5937 5940 5941 5943 5946 5948 5950 5950 5951 5950 5949 5948 5946 5944 5944 5944 5943 5943 5943 5942 5941 5938 5934 5931 5926 5921 5915 5911 5906 5898 5892 5884 5877 5868 5860 5848 5833 5823 5817 5808 5805 5801
5935 5937 5939 5941 5942 5944 5947 5949 5950 5951 5951 5950 5949 5947 5945 5944 5944 5944 5942 5940 5940 5938 5935 5931 5927 5922 5918 5914 5911 5905 5897 5889 5881 5875 5868 5858 5844 5830 5820 5812 5805 5800 5796
5935 5936 5938 5939 5941 5943 5944 5948 5950 5950 5951 5951 5950 5949 5947 5945 5944 5943 5942 5940 5938 5935 5934 5930 5926 5923 5918 5914 5908 5902 5895 5888 5881 5873 5864 5853 5839 5826 5815 5806 5800 5792 5787